When you browse on this site, cookies collect data to enhance your experience and personalize the content and advertising you see.
Visit our Privacy Policy to learn more. By continuing to use the site, you agree to this use of cookies and data.
  • In Latvia
  • List of Countries
  • For 7 days
  • Water Temperature
  • Weather Map
  • Weather Widgets
  • user-avatar
    Login

    Hourly Weather Zaluzhnyy

    Today, 25 August, Sunday

    Time Temperature Precipitation Wind Pressure Humidity
    00:00 +27°C° 0 mm 5 mps 755 mmHg 50%
    01:00 +26°C° 0 mm 5 mps 755 mmHg 52%
    02:00 +26°C° 0 mm 4 mps 755 mmHg 55%
    03:00 +25°C° 0 mm 4 mps 755 mmHg 58%
    04:00 +23°C° 0 mm 5 mps 755 mmHg 59%
    05:00 +23°C° 0 mm 5 mps 755 mmHg 61%
    06:00 +23°C° 0 mm 5 mps 755 mmHg 62%
    07:00 +25°C° 0 mm 5 mps 755 mmHg 57%
    08:00 +27°C° 0 mm 5 mps 756 mmHg 52%
    09:00 +29°C° 0 mm 6 mps 756 mmHg 47%
    10:00 +32°C° 0 mm 6 mps 756 mmHg 43%
    11:00 +33°C° 0 mm 6 mps 756 mmHg 39%
    12:00 +35°C° 0 mm 6 mps 755 mmHg 34%
    13:00 +35°C° 0 mm 6 mps 755 mmHg 33%
    14:00 +35°C° 0 mm 6 mps 755 mmHg 32%
    15:00 +36°C° 0 mm 6 mps 755 mmHg 31%
    16:00 +35°C° 0 mm 5 mps 755 mmHg 33%
    17:00 +34°C° 0 mm 5 mps 755 mmHg 35%
    18:00 +33°C° 0 mm 5 mps 755 mmHg 36%
    19:00 +32°C° 0 mm 5 mps 756 mmHg 38%
    20:00 +29°C° 0 mm 6 mps 756 mmHg 40%
    21:00 +28°C° 0 mm 6 mps 757 mmHg 41%
    22:00 +27°C° 0 mm 6 mps 757 mmHg 40%
    23:00 +26°C° 0 mm 5 mps 757 mmHg 39%

    Tomorrow, 26 August, Monday

    Time Temperature Precipitation Wind Pressure Humidity
    00:00 +25°C° 0 mm 5 mps 757 mmHg 38%
    01:00 +23°C° 0 mm 5 mps 757 mmHg 40%
    02:00 +23°C° 0 mm 5 mps 758 mmHg 41%
    03:00 +23°C° 0 mm 5 mps 758 mmHg 43%
    04:00 +22°C° 0 mm 5 mps 758 mmHg 47%
    05:00 +21°C° 0 mm 5 mps 758 mmHg 52%
    06:00 +20°C° 0 mm 4 mps 758 mmHg 57%
    07:00 +22°C° 0 mm 5 mps 758 mmHg 54%
    08:00 +23°C° 0 mm 5 mps 759 mmHg 51%
    09:00 +26°C° 0 mm 5 mps 759 mmHg 48%
    10:00 +27°C° 0 mm 5 mps 759 mmHg 44%
    11:00 +29°C° 0 mm 5 mps 759 mmHg 39%
    12:00 +30°C° 0 mm 5 mps 759 mmHg 34%
    13:00 +30°C° 0 mm 5 mps 758 mmHg 33%
    14:00 +32°C° 0 mm 5 mps 758 mmHg 31%
    15:00 +32°C° 0 mm 5 mps 758 mmHg 29%
    16:00 +32°C° 0 mm 5 mps 758 mmHg 31%
    17:00 +30°C° 0 mm 5 mps 758 mmHg 32%
    18:00 +29°C° 0 mm 5 mps 757 mmHg 33%
    19:00 +27°C° 0 mm 4 mps 758 mmHg 35%
    20:00 +26°C° 0 mm 4 mps 758 mmHg 38%
    21:00 +23°C° 0 mm 4 mps 758 mmHg 41%
    22:00 +22°C° 0 mm 4 mps 758 mmHg 40%
    23:00 +21°C° 0 mm 4 mps 758 mmHg 40%

    Day after tomorrow, 27 August, Tuesday

    Time Temperature Precipitation Wind Pressure Humidity
    00:00 +21°C° 0 mm 4 mps 758 mmHg 39%
    01:00 +20°C° 0 mm 4 mps 758 mmHg 40%
    02:00 +20°C° 0 mm 4 mps 757 mmHg 40%
    03:00 +20°C° 0 mm 4 mps 757 mmHg 41%
    04:00 +19°C° 0 mm 3 mps 757 mmHg 43%
    05:00 +19°C° 0 mm 3 mps 757 mmHg 45%
    06:00 +18°C° 0 mm 3 mps 757 mmHg 47%
    07:00 +20°C° 0 mm 3 mps 757 mmHg 42%
    08:00 +24°C° 0 mm 3 mps 757 mmHg 38%
    09:00 +26°C° 0 mm 4 mps 757 mmHg 33%
    10:00 +27°C° 0 mm 3 mps 756 mmHg 31%
    11:00 +29°C° 0 mm 3 mps 756 mmHg 29%
    12:00 +30°C° 0 mm 3 mps 756 mmHg 27%
    13:00 +30°C° 0 mm 3 mps 756 mmHg 25%
    14:00 +31°C° 0 mm 3 mps 755 mmHg 23%
    15:00 +31°C° 0 mm 3 mps 755 mmHg 21%
    16:00 +32°C° 0 mm 4 mps 755 mmHg 22%
    17:00 +30°C° 0 mm 4 mps 754 mmHg 22%
    18:00 +29°C° 0 mm 5 mps 754 mmHg 22%
    19:00 +27°C° 0 mm 5 mps 754 mmHg 26%
    20:00 +25°C° 0 mm 4 mps 754 mmHg 31%
    21:00 +22°C° 0 mm 4 mps 754 mmHg 35%
    22:00 +21°C° 0 mm 4 mps 754 mmHg 38%
    23:00 +20°C° 0 mm 3 mps 754 mmHg 41%

    28 August, Wednesday

    Time Temperature Precipitation Wind Pressure Humidity
    00:00 +19°C° 0 mm 3 mps 754 mmHg 44%
    01:00 +19°C° 0 mm 3 mps 754 mmHg 47%
    02:00 +18°C° 0 mm 3 mps 754 mmHg 49%
    03:00 +18°C° 0 mm 3 mps 754 mmHg 52%
    04:00 +18°C° 0 mm 3 mps 754 mmHg 56%
    05:00 +17°C° 0 mm 3 mps 754 mmHg 59%
    06:00 +17°C° 0 mm 3 mps 754 mmHg 63%
    07:00 +19°C° 0 mm 4 mps 754 mmHg 60%
    08:00 +21°C° 0 mm 4 mps 754 mmHg 57%
    09:00 +23°C° 0 mm 5 mps 755 mmHg 53%
    10:00 +25°C° 0 mm 5 mps 755 mmHg 46%
    11:00 +26°C° 0 mm 5 mps 755 mmHg 39%
    12:00 +27°C° 0 mm 6 mps 755 mmHg 32%
    13:00 +27°C° 0 mm 6 mps 754 mmHg 32%
    14:00 +27°C° 0 mm 6 mps 754 mmHg 31%
    15:00 +27°C° 0 mm 6 mps 754 mmHg 30%
    16:00 +26°C° 0 mm 6 mps 754 mmHg 30%
    17:00 +24°C° 0 mm 6 mps 754 mmHg 30%
    18:00 +23°C° 0 mm 5 mps 755 mmHg 30%
    19:00 +22°C° 0 mm 5 mps 755 mmHg 34%
    20:00 +20°C° 0 mm 4 mps 755 mmHg 37%
    21:00 +18°C° 0 mm 4 mps 756 mmHg 41%
    22:00 +17°C° 0 mm 4 mps 756 mmHg 42%
    23:00 +15°C° 0 mm 4 mps 756 mmHg 43%

    29 August, Thursday

    Time Temperature Precipitation Wind Pressure Humidity
    00:00 +14°C° 0 mm 4 mps 756 mmHg 44%
    01:00 +13°C° 0 mm 4 mps 757 mmHg 48%
    02:00 +12°C° 0 mm 4 mps 757 mmHg 52%
    03:00 +11°C° 0 mm 4 mps 757 mmHg 56%
    04:00 +10°C° 0 mm 4 mps 757 mmHg 57%
    05:00 +10°C° 0 mm 4 mps 757 mmHg 58%
    06:00 +8°C° 0 mm 4 mps 757 mmHg 60%
    07:00 +11°C° 0 mm 4 mps 758 mmHg 55%
    08:00 +12°C° 0 mm 5 mps 758 mmHg 50%
    09:00 +14°C° 0 mm 5 mps 758 mmHg 45%
    10:00 +15°C° 0 mm 5 mps 758 mmHg 41%
    11:00 +17°C° 0 mm 5 mps 758 mmHg 37%
    12:00 +19°C° 0 mm 5 mps 757 mmHg 34%
    13:00 +20°C° 0 mm 5 mps 757 mmHg 33%
    14:00 +21°C° 0 mm 5 mps 757 mmHg 31%
    15:00 +22°C° 0 mm 5 mps 757 mmHg 30%
    16:00 +21°C° 0 mm 5 mps 757 mmHg 31%
    17:00 +21°C° 0 mm 5 mps 757 mmHg 32%
    18:00 +20°C° 0 mm 5 mps 757 mmHg 34%
    19:00 +17°C° 0 mm 5 mps 757 mmHg 37%
    20:00 +17°C° 0 mm 4 mps 757 mmHg 41%
    21:00 +14°C° 0 mm 4 mps 757 mmHg 44%
    22:00 +14°C° 0 mm 4 mps 757 mmHg 47%
    23:00 +13°C° 0 mm 4 mps 758 mmHg 49%

    30 August, Friday

    Time Temperature Precipitation Wind Pressure Humidity
    00:00 +12°C° 0 mm 4 mps 758 mmHg 52%
    01:00 +11°C° 0 mm 4 mps 758 mmHg 54%
    02:00 +11°C° 0 mm 4 mps 758 mmHg 56%
    03:00 +10°C° 0 mm 4 mps 758 mmHg 59%
    04:00 +10°C° 0 mm 4 mps 758 mmHg 61%
    05:00 +8°C° 0 mm 4 mps 758 mmHg 63%
    06:00 +8°C° 0 mm 4 mps 758 mmHg 65%
    07:00 +10°C° 0 mm 5 mps 758 mmHg 58%
    08:00 +13°C° 0 mm 5 mps 758 mmHg 51%
    09:00 +15°C° 0 mm 6 mps 759 mmHg 44%
    10:00 +16°C° 0 mm 6 mps 759 mmHg 41%
    11:00 +19°C° 0 mm 6 mps 758 mmHg 38%
    12:00 +20°C° 0 mm 6 mps 758 mmHg 35%
    13:00 +21°C° 0 mm 6 mps 758 mmHg 34%
    14:00 +21°C° 0 mm 5 mps 758 mmHg 33%
    15:00 +22°C° 0 mm 5 mps 757 mmHg 32%
    16:00 +21°C° 0 mm 5 mps 757 mmHg 34%
    17:00 +21°C° 0 mm 5 mps 757 mmHg 36%
    18:00 +20°C° 0 mm 5 mps 757 mmHg 38%
    19:00 +19°C° 0 mm 4 mps 757 mmHg 44%
    20:00 +17°C° 0 mm 4 mps 757 mmHg 49%
    21:00 +14°C° 0 mm 3 mps 757 mmHg 55%
    22:00 +14°C° 0 mm 3 mps 757 mmHg 57%
    23:00 +13°C° 0 mm 3 mps 757 mmHg 59%
    Show more